Year,Month,Day,Hour,Minute,Value (Times are PST for temperature in C)
2013,11,26,00,00,1.30
2013,11,26,00,01,1.30
2013,11,26,00,02,1.30
2013,11,26,00,03,1.30
2013,11,26,00,04,1.30
2013,11,26,00,05,1.30
2013,11,26,00,06,1.30
2013,11,26,00,07,1.30
2013,11,26,00,08,1.30
2013,11,26,00,09,1.20
2013,11,26,00,10,1.20
2013,11,26,00,11,1.20
2013,11,26,00,12,1.20
2013,11,26,00,13,1.20
2013,11,26,00,14,1.20
2013,11,26,00,15,1.30
2013,11,26,00,16,1.30
2013,11,26,00,17,1.30
2013,11,26,00,18,1.30
2013,11,26,00,19,1.30
2013,11,26,00,20,1.30
2013,11,26,00,21,1.30
2013,11,26,00,22,1.30
2013,11,26,00,23,1.30
2013,11,26,00,24,1.30
2013,11,26,00,25,1.30
2013,11,26,00,26,1.30
2013,11,26,00,27,1.30
2013,11,26,00,28,1.30
2013,11,26,00,29,1.30
2013,11,26,00,30,1.20
2013,11,26,00,31,1.20
2013,11,26,00,32,1.20
2013,11,26,00,33,1.20
2013,11,26,00,34,1.20
2013,11,26,00,35,1.20
2013,11,26,00,36,1.20
2013,11,26,00,37,1.20
2013,11,26,00,38,1.20
2013,11,26,00,39,1.20
2013,11,26,00,40,1.20
2013,11,26,00,41,1.20
2013,11,26,00,42,1.20
2013,11,26,00,43,1.20
2013,11,26,00,44,1.20
2013,11,26,00,45,1.10
2013,11,26,00,46,1.10
2013,11,26,00,47,1.20
2013,11,26,00,48,1.20
2013,11,26,00,49,1.20
2013,11,26,00,50,1.20
2013,11,26,00,51,1.20
2013,11,26,00,52,1.20
2013,11,26,00,53,1.20
2013,11,26,00,54,1.10
2013,11,26,00,55,1.10
2013,11,26,00,56,1.10
2013,11,26,00,57,1.10
2013,11,26,00,58,1.10
2013,11,26,00,59,1.10
2013,11,26,01,00,1.10
2013,11,26,01,01,1.10
2013,11,26,01,02,1.10
2013,11,26,01,03,1.10
2013,11,26,01,04,1.10
2013,11,26,01,05,1.10
2013,11,26,01,06,1.10
2013,11,26,01,07,1.10
2013,11,26,01,08,1.10
2013,11,26,01,09,1.10
2013,11,26,01,10,1.10
2013,11,26,01,11,1.00
2013,11,26,01,12,1.00
2013,11,26,01,13,1.10
2013,11,26,01,14,1.10
2013,11,26,01,15,1.10
2013,11,26,01,16,1.10
2013,11,26,01,17,1.00
2013,11,26,01,18,1.00
2013,11,26,01,19,1.00
2013,11,26,01,20,1.00
2013,11,26,01,21,1.00
2013,11,26,01,22,1.00
2013,11,26,01,23,1.00
2013,11,26,01,24,1.00
2013,11,26,01,25,1.00
2013,11,26,01,26,1.00
2013,11,26,01,27,0.90
2013,11,26,01,28,0.90
2013,11,26,01,29,0.90
2013,11,26,01,30,0.90
2013,11,26,01,31,0.90
2013,11,26,01,32,0.90
2013,11,26,01,33,0.90
2013,11,26,01,34,0.90
2013,11,26,01,35,0.90
2013,11,26,01,36,0.90
2013,11,26,01,37,0.80
2013,11,26,01,38,0.80
2013,11,26,01,39,0.80
2013,11,26,01,40,0.80
2013,11,26,01,41,0.80
2013,11,26,01,42,0.80
2013,11,26,01,43,0.80
2013,11,26,01,44,0.70
2013,11,26,01,45,0.70
2013,11,26,01,46,0.70
2013,11,26,01,47,0.70
2013,11,26,01,48,0.80
2013,11,26,01,49,0.80
2013,11,26,01,50,0.80
2013,11,26,01,51,0.80
2013,11,26,01,52,0.80
2013,11,26,01,53,0.80
2013,11,26,01,54,0.80
2013,11,26,01,55,0.80
2013,11,26,01,56,0.80
2013,11,26,01,57,0.80
2013,11,26,01,58,0.80
2013,11,26,01,59,0.80
2013,11,26,02,00,0.80
2013,11,26,02,01,0.80
2013,11,26,02,02,0.80
2013,11,26,02,03,0.80
2013,11,26,02,04,0.80
2013,11,26,02,05,0.80
2013,11,26,02,06,0.80
2013,11,26,02,07,0.80
2013,11,26,02,08,0.80
2013,11,26,02,09,0.80
2013,11,26,02,10,0.80
2013,11,26,02,11,0.80
2013,11,26,02,12,0.80
2013,11,26,02,13,0.80
2013,11,26,02,14,0.80
2013,11,26,02,15,0.80
2013,11,26,02,16,0.80
2013,11,26,02,17,0.80
2013,11,26,02,18,0.70
2013,11,26,02,19,0.70
2013,11,26,02,20,0.70
2013,11,26,02,21,0.70
2013,11,26,02,22,0.70
2013,11,26,02,23,0.60
2013,11,26,02,24,0.60
2013,11,26,02,25,0.60
2013,11,26,02,26,0.60
2013,11,26,02,27,0.50
2013,11,26,02,28,0.50
2013,11,26,02,29,0.50
2013,11,26,02,30,0.50
2013,11,26,02,31,0.50
2013,11,26,02,32,0.50
2013,11,26,02,33,0.50
2013,11,26,02,34,0.50
2013,11,26,02,35,0.50
2013,11,26,02,36,0.50
2013,11,26,02,37,0.50
2013,11,26,02,38,0.50
2013,11,26,02,39,0.40
2013,11,26,02,40,0.40
2013,11,26,02,41,0.40
2013,11,26,02,42,0.40
2013,11,26,02,43,0.40
2013,11,26,02,44,0.50
2013,11,26,02,45,0.50
2013,11,26,02,46,0.60
2013,11,26,02,47,0.60
2013,11,26,02,48,0.60
2013,11,26,02,49,0.60
2013,11,26,02,50,0.60
2013,11,26,02,51,0.60
2013,11,26,02,52,0.60
2013,11,26,02,53,0.60
2013,11,26,02,54,0.60
2013,11,26,02,55,0.60
2013,11,26,02,56,0.60
2013,11,26,02,57,0.60
2013,11,26,02,58,0.60
2013,11,26,02,59,0.50
2013,11,26,03,00,0.50
2013,11,26,03,01,0.50
2013,11,26,03,02,0.50
2013,11,26,03,03,0.40
2013,11,26,03,04,0.40
2013,11,26,03,05,0.40
2013,11,26,03,06,0.40
2013,11,26,03,07,0.30
2013,11,26,03,08,0.30
2013,11,26,03,09,0.30
2013,11,26,03,10,0.30
2013,11,26,03,11,0.30
2013,11,26,03,12,0.30
2013,11,26,03,13,0.30
2013,11,26,03,14,0.30
2013,11,26,03,15,0.30
2013,11,26,03,16,0.30
2013,11,26,03,17,0.30
2013,11,26,03,18,0.30
2013,11,26,03,19,0.30
2013,11,26,03,20,0.30
2013,11,26,03,21,0.40
2013,11,26,03,22,0.40
2013,11,26,03,23,0.40
2013,11,26,03,24,0.40
2013,11,26,03,25,0.30
2013,11,26,03,26,0.30
2013,11,26,03,27,0.30
2013,11,26,03,28,0.30
2013,11,26,03,29,0.30
2013,11,26,03,30,0.30
2013,11,26,03,31,0.30
2013,11,26,03,32,0.30
2013,11,26,03,33,0.30
2013,11,26,03,34,0.30
2013,11,26,03,35,0.30
2013,11,26,03,36,0.30
2013,11,26,03,37,0.30
2013,11,26,03,38,0.30
2013,11,26,03,39,0.30
2013,11,26,03,40,0.30
2013,11,26,03,41,0.30
2013,11,26,03,42,0.30
2013,11,26,03,43,0.30
2013,11,26,03,44,0.20
2013,11,26,03,45,0.20
2013,11,26,03,46,0.20
2013,11,26,03,47,0.20
2013,11,26,03,48,0.10
2013,11,26,03,49,0.10
2013,11,26,03,50,0.10
2013,11,26,03,51,0.10
2013,11,26,03,52,0.10
2013,11,26,03,53,0.10
2013,11,26,03,54,0.10
2013,11,26,03,55,0.10
2013,11,26,03,56,0.10
2013,11,26,03,57,0.10
2013,11,26,03,58,0.10
2013,11,26,03,59,0.10
2013,11,26,04,00,0.10
2013,11,26,04,01,0.10
2013,11,26,04,02,0.10
2013,11,26,04,03,0.10
2013,11,26,04,04,0.10
2013,11,26,04,05,0.20
2013,11,26,04,06,0.20
2013,11,26,04,07,0.20
2013,11,26,04,08,0.20
2013,11,26,04,09,0.20
2013,11,26,04,10,0.20
2013,11,26,04,11,0.20
2013,11,26,04,12,0.20
2013,11,26,04,13,0.10
2013,11,26,04,14,0.10
2013,11,26,04,15,0.10
2013,11,26,04,16,0.10
2013,11,26,04,17,0.10
2013,11,26,04,18,0.10
2013,11,26,04,19,0.10
2013,11,26,04,20,0.10
2013,11,26,04,21,0.10
2013,11,26,04,22,0.10
2013,11,26,04,23,0.00
2013,11,26,04,24,0.10
2013,11,26,04,25,0.10
2013,11,26,04,26,0.10
2013,11,26,04,27,0.10
2013,11,26,04,28,0.10
2013,11,26,04,29,0.10
2013,11,26,04,30,0.20
2013,11,26,04,31,0.20
2013,11,26,04,32,0.20
2013,11,26,04,33,0.20
2013,11,26,04,34,0.30
2013,11,26,04,35,0.30
2013,11,26,04,36,0.30
2013,11,26,04,37,0.20
2013,11,26,04,38,0.20
2013,11,26,04,39,0.20
2013,11,26,04,40,0.10
2013,11,26,04,41,0.10
2013,11,26,04,42,0.10
2013,11,26,04,43,0.10
2013,11,26,04,44,0.00
2013,11,26,04,45,0.00
2013,11,26,04,46,0.00
2013,11,26,04,47,0.00
2013,11,26,04,48,-0.10
2013,11,26,04,49,-0.10
2013,11,26,04,50,-0.10
2013,11,26,04,51,-0.10
2013,11,26,04,52,-0.20
2013,11,26,04,53,-0.20
2013,11,26,04,54,-0.20
2013,11,26,04,55,-0.20
2013,11,26,04,56,-0.20
2013,11,26,04,57,-0.20
2013,11,26,04,58,-0.20
2013,11,26,04,59,-0.20
2013,11,26,05,00,-0.30
2013,11,26,05,01,-0.30
2013,11,26,05,02,-0.30
2013,11,26,05,03,-0.30
2013,11,26,05,04,-0.30
2013,11,26,05,05,-0.30
2013,11,26,05,06,-0.30
2013,11,26,05,07,-0.30
2013,11,26,05,08,-0.30
2013,11,26,05,09,-0.30
2013,11,26,05,10,-0.30
2013,11,26,05,11,-0.30
2013,11,26,05,12,-0.30
2013,11,26,05,13,-0.20
2013,11,26,05,14,-0.20
2013,11,26,05,15,-0.20
2013,11,26,05,16,-0.20
2013,11,26,05,17,-0.10
2013,11,26,05,18,-0.10
2013,11,26,05,19,-0.10
2013,11,26,05,20,0.00
2013,11,26,05,21,0.00
2013,11,26,05,22,0.10
2013,11,26,05,23,0.10
2013,11,26,05,24,0.10
2013,11,26,05,25,0.10
2013,11,26,05,26,0.10
2013,11,26,05,27,0.00
2013,11,26,05,28,0.00
2013,11,26,05,29,0.00
2013,11,26,05,30,0.00
2013,11,26,05,31,-0.10
2013,11,26,05,32,-0.10
2013,11,26,05,33,-0.10
2013,11,26,05,34,-0.10
2013,11,26,05,35,-0.20
2013,11,26,05,36,-0.20
2013,11,26,05,37,-0.20
2013,11,26,05,38,-0.20
2013,11,26,05,39,-0.20
2013,11,26,05,40,-0.20
2013,11,26,05,41,-0.20
2013,11,26,05,42,-0.20
2013,11,26,05,43,-0.20
2013,11,26,05,44,-0.20
2013,11,26,05,45,-0.20
2013,11,26,05,46,-0.20
2013,11,26,05,47,-0.20
2013,11,26,05,48,-0.20
2013,11,26,05,49,-0.20
2013,11,26,05,50,-0.20
2013,11,26,05,51,-0.20
2013,11,26,05,52,-0.20
2013,11,26,05,53,-0.20
2013,11,26,05,54,-0.20
2013,11,26,05,55,-0.20
2013,11,26,05,56,-0.20
2013,11,26,05,57,-0.20
2013,11,26,05,58,-0.20
2013,11,26,05,59,-0.20
2013,11,26,06,00,-0.20
2013,11,26,06,01,-0.20
2013,11,26,06,02,-0.20
2013,11,26,06,03,-0.20
2013,11,26,06,04,-0.10
2013,11,26,06,05,-0.20
2013,11,26,06,06,-0.20
2013,11,26,06,07,-0.20
2013,11,26,06,08,-0.20
2013,11,26,06,09,-0.20
2013,11,26,06,10,-0.20
2013,11,26,06,11,-0.20
2013,11,26,06,12,-0.30
2013,11,26,06,13,-0.30
2013,11,26,06,14,-0.30
2013,11,26,06,15,-0.30
2013,11,26,06,16,-0.30
2013,11,26,06,17,-0.30
2013,11,26,06,18,-0.30
2013,11,26,06,19,-0.30
2013,11,26,06,20,-0.30
2013,11,26,06,21,-0.30
2013,11,26,06,22,-0.30
2013,11,26,06,23,-0.30
2013,11,26,06,24,-0.30
2013,11,26,06,25,-0.20
2013,11,26,06,26,-0.20
2013,11,26,06,27,-0.20
2013,11,26,06,28,-0.20
2013,11,26,06,29,-0.20
2013,11,26,06,30,-0.20
2013,11,26,06,31,-0.20
2013,11,26,06,32,-0.20
2013,11,26,06,33,-0.20
2013,11,26,06,34,-0.20
2013,11,26,06,35,-0.20
2013,11,26,06,36,-0.20
2013,11,26,06,37,-0.20
2013,11,26,06,38,-0.20
2013,11,26,06,39,-0.20
2013,11,26,06,40,-0.20
2013,11,26,06,41,-0.20
2013,11,26,06,42,-0.20
2013,11,26,06,43,-0.10
2013,11,26,06,44,-0.10
2013,11,26,06,45,-0.10
2013,11,26,06,46,-0.10
2013,11,26,06,47,-0.10
2013,11,26,06,48,-0.10
2013,11,26,06,49,-0.10
2013,11,26,06,50,-0.10
2013,11,26,06,51,-0.10
2013,11,26,06,52,-0.20
2013,11,26,06,53,-0.20
2013,11,26,06,54,-0.20
2013,11,26,06,55,-0.20
2013,11,26,06,56,-0.10
2013,11,26,06,57,-0.10
2013,11,26,06,58,-0.10
2013,11,26,06,59,-0.10
2013,11,26,07,00,-0.10
2013,11,26,07,01,-0.10
2013,11,26,07,02,-0.10
2013,11,26,07,03,-0.10
2013,11,26,07,04,-0.10
2013,11,26,07,05,-0.10
2013,11,26,07,06,-0.10
2013,11,26,07,07,-0.10
2013,11,26,07,08,-0.10
2013,11,26,07,09,-0.20
2013,11,26,07,10,-0.20
2013,11,26,07,11,-0.20
2013,11,26,07,12,-0.20
2013,11,26,07,13,-0.20
2013,11,26,07,14,-0.20
2013,11,26,07,15,-0.20
2013,11,26,07,16,-0.20
2013,11,26,07,17,-0.20
2013,11,26,07,18,-0.20
2013,11,26,07,19,-0.30
2013,11,26,07,20,-0.30
2013,11,26,07,21,-0.30
2013,11,26,07,22,-0.30
2013,11,26,07,23,-0.30
2013,11,26,07,24,-0.30
2013,11,26,07,25,-0.30
2013,11,26,07,26,-0.30
2013,11,26,07,27,-0.40
2013,11,26,07,28,-0.30
2013,11,26,07,29,-0.30
2013,11,26,07,30,-0.30
2013,11,26,07,31,-0.30
2013,11,26,07,32,-0.40
2013,11,26,07,33,-0.40
2013,11,26,07,34,-0.40
2013,11,26,07,35,-0.40
2013,11,26,07,36,-0.40
2013,11,26,07,37,-0.40
2013,11,26,07,38,-0.40
2013,11,26,07,39,-0.40
2013,11,26,07,40,-0.40
2013,11,26,07,41,-0.40
2013,11,26,07,42,-0.40
2013,11,26,07,43,-0.40
2013,11,26,07,44,-0.40
2013,11,26,07,45,-0.40
2013,11,26,07,46,-0.40
2013,11,26,07,47,-0.40
2013,11,26,07,48,-0.40
2013,11,26,07,49,-0.40
2013,11,26,07,50,-0.40
2013,11,26,07,51,-0.40
2013,11,26,07,52,-0.40
2013,11,26,07,53,-0.40
2013,11,26,07,54,-0.40
2013,11,26,07,55,-0.40
2013,11,26,07,56,-0.40
2013,11,26,07,57,-0.40
2013,11,26,07,58,-0.30
2013,11,26,07,59,-0.30
2013,11,26,08,00,-0.30
2013,11,26,08,01,-0.30
2013,11,26,08,02,-0.30
2013,11,26,08,03,-0.30
2013,11,26,08,04,-0.30
2013,11,26,08,05,-0.30
2013,11,26,08,06,-0.30
2013,11,26,08,07,-0.30
2013,11,26,08,08,-0.30
2013,11,26,08,09,-0.20
2013,11,26,08,10,-0.20
2013,11,26,08,11,-0.20
2013,11,26,08,12,-0.20
2013,11,26,08,13,-0.20
2013,11,26,08,14,-0.20
2013,11,26,08,15,-0.20
2013,11,26,08,16,-0.20
2013,11,26,08,17,-0.20
2013,11,26,08,18,-0.20
2013,11,26,08,19,-0.20
2013,11,26,08,20,-0.10
2013,11,26,08,21,-0.10
2013,11,26,08,22,-0.10
2013,11,26,08,23,-0.10
2013,11,26,08,24,-0.10
2013,11,26,08,25,0.00
2013,11,26,08,26,0.00
2013,11,26,08,27,0.00
2013,11,26,08,28,0.10
2013,11,26,08,29,0.10
2013,11,26,08,30,0.10
2013,11,26,08,31,0.10
2013,11,26,08,32,0.10
2013,11,26,08,33,0.10
2013,11,26,08,34,0.10
2013,11,26,08,35,0.10
2013,11,26,08,36,0.10
2013,11,26,08,37,0.20
2013,11,26,08,38,0.20
2013,11,26,08,39,0.20
2013,11,26,08,40,0.20
2013,11,26,08,41,0.30
2013,11,26,08,42,0.30
2013,11,26,08,43,0.30
2013,11,26,08,44,0.30
2013,11,26,08,45,0.30
2013,11,26,08,46,0.30
2013,11,26,08,47,0.30
2013,11,26,08,48,0.40
2013,11,26,08,49,0.40
2013,11,26,08,50,0.40
2013,11,26,08,51,0.40
2013,11,26,08,52,0.40
2013,11,26,08,53,0.40
2013,11,26,08,54,0.40
2013,11,26,08,55,0.40
2013,11,26,08,56,0.50
2013,11,26,08,57,0.50
2013,11,26,08,58,0.50
2013,11,26,08,59,0.50
2013,11,26,09,00,0.50
2013,11,26,09,01,0.50
2013,11,26,09,02,0.50
2013,11,26,09,03,0.50
2013,11,26,09,04,0.60
2013,11,26,09,05,0.60
2013,11,26,09,06,0.60
2013,11,26,09,07,0.60
2013,11,26,09,08,0.60
2013,11,26,09,09,0.60
2013,11,26,09,10,0.60
2013,11,26,09,11,0.60
2013,11,26,09,12,0.70
2013,11,26,09,13,0.70
2013,11,26,09,14,0.70
2013,11,26,09,15,0.70
2013,11,26,09,16,0.70
2013,11,26,09,17,0.70
2013,11,26,09,18,0.80
2013,11,26,09,19,0.80
2013,11,26,09,20,0.80
2013,11,26,09,21,0.80
2013,11,26,09,22,0.80
2013,11,26,09,23,0.80
2013,11,26,09,24,0.80
2013,11,26,09,25,0.80
2013,11,26,09,26,0.90
2013,11,26,09,27,0.90
2013,11,26,09,28,0.90
2013,11,26,09,29,0.90
2013,11,26,09,30,0.90
2013,11,26,09,31,0.90
2013,11,26,09,32,1.00
2013,11,26,09,33,1.00
2013,11,26,09,34,1.00
2013,11,26,09,35,1.00
2013,11,26,09,36,1.00
2013,11,26,09,37,1.00
2013,11,26,09,38,1.00
2013,11,26,09,39,1.00
2013,11,26,09,40,1.00
2013,11,26,09,41,1.00
2013,11,26,09,42,1.00
2013,11,26,09,43,1.00
2013,11,26,09,44,1.00
2013,11,26,09,45,1.10
2013,11,26,09,46,1.10
2013,11,26,09,47,1.10
2013,11,26,09,48,1.20
2013,11,26,09,49,1.20
2013,11,26,09,50,1.20
2013,11,26,09,51,1.20
2013,11,26,09,52,1.20
2013,11,26,09,53,1.30
2013,11,26,09,54,1.30
2013,11,26,09,55,1.30
2013,11,26,09,56,1.30
2013,11,26,09,57,1.30
2013,11,26,09,58,1.30
2013,11,26,09,59,1.30
2013,11,26,10,00,1.30
2013,11,26,10,01,1.30
2013,11,26,10,02,1.30
2013,11,26,10,03,1.30
2013,11,26,10,04,1.30
2013,11,26,10,05,1.30
2013,11,26,10,06,1.30
2013,11,26,10,07,1.30
2013,11,26,10,08,1.30
2013,11,26,10,09,1.30
2013,11,26,10,10,1.30
2013,11,26,10,11,1.30
2013,11,26,10,12,1.30
2013,11,26,10,13,1.30
2013,11,26,10,14,1.30
2013,11,26,10,15,1.30
2013,11,26,10,16,1.30
2013,11,26,10,17,1.30
2013,11,26,10,18,1.40
2013,11,26,10,19,1.50
2013,11,26,10,20,1.60
2013,11,26,10,21,1.60
2013,11,26,10,22,1.70
2013,11,26,10,23,1.70
2013,11,26,10,24,1.70
2013,11,26,10,25,1.80
2013,11,26,10,26,1.80
2013,11,26,10,27,1.80
2013,11,26,10,28,1.80
2013,11,26,10,29,1.90
2013,11,26,10,30,1.90
2013,11,26,10,31,1.90
2013,11,26,10,32,2.00
2013,11,26,10,33,2.00
2013,11,26,10,34,2.10
2013,11,26,10,35,2.10
2013,11,26,10,36,2.10
2013,11,26,10,37,2.10
2013,11,26,10,38,2.10
2013,11,26,10,39,2.20
2013,11,26,10,40,2.20
2013,11,26,10,41,2.20
2013,11,26,10,42,2.20
2013,11,26,10,43,2.20
2013,11,26,10,44,2.30
2013,11,26,10,45,2.30
2013,11,26,10,46,2.30
2013,11,26,10,47,2.40
2013,11,26,10,48,2.50
2013,11,26,10,49,2.60
2013,11,26,10,50,2.70
2013,11,26,10,51,2.70
2013,11,26,10,52,2.80
2013,11,26,10,53,2.90
2013,11,26,10,54,3.00
2013,11,26,10,55,3.00
2013,11,26,10,56,3.10
2013,11,26,10,57,3.20
2013,11,26,10,58,3.30
2013,11,26,10,59,3.30
2013,11,26,11,00,3.40
2013,11,26,11,01,3.40
2013,11,26,11,02,3.50
2013,11,26,11,03,3.50
2013,11,26,11,04,3.60
2013,11,26,11,05,3.70
2013,11,26,11,06,3.80
2013,11,26,11,07,3.80
2013,11,26,11,08,3.90
2013,11,26,11,09,4.00
2013,11,26,11,10,4.20
2013,11,26,11,11,4.30
2013,11,26,11,12,4.40
2013,11,26,11,13,4.50
2013,11,26,11,14,4.60
2013,11,26,11,15,4.80
2013,11,26,11,16,4.90
2013,11,26,11,17,5.00
2013,11,26,11,18,5.00
2013,11,26,11,19,5.10
2013,11,26,11,20,5.20
2013,11,26,11,21,5.30
2013,11,26,11,22,5.50
2013,11,26,11,23,5.60
2013,11,26,11,24,5.70
2013,11,26,11,25,5.80
2013,11,26,11,26,5.90
2013,11,26,11,27,5.90
2013,11,26,11,28,6.00
2013,11,26,11,29,6.10
2013,11,26,11,30,6.20
2013,11,26,11,31,6.30
2013,11,26,11,32,6.30
2013,11,26,11,33,6.40
2013,11,26,11,34,6.40
2013,11,26,11,35,6.40
2013,11,26,11,36,6.50
2013,11,26,11,37,6.50
2013,11,26,11,38,6.50
2013,11,26,11,39,6.50
2013,11,26,11,40,6.60
2013,11,26,11,41,6.60
2013,11,26,11,42,6.60
2013,11,26,11,43,6.70
2013,11,26,11,44,6.70
2013,11,26,11,45,6.80
2013,11,26,11,46,6.80
2013,11,26,11,47,6.80
2013,11,26,11,48,6.80
2013,11,26,11,49,6.90
2013,11,26,11,50,6.90
2013,11,26,11,51,6.90
2013,11,26,11,52,7.00
2013,11,26,11,53,7.10
2013,11,26,11,54,7.10
2013,11,26,11,55,7.20
2013,11,26,11,56,7.20
2013,11,26,11,57,7.20
2013,11,26,11,58,7.20
2013,11,26,11,59,7.20
2013,11,26,12,00,7.20
2013,11,26,12,01,7.20
2013,11,26,12,02,7.20
2013,11,26,12,03,7.20
2013,11,26,12,04,7.20
2013,11,26,12,05,7.20
2013,11,26,12,06,7.20
2013,11,26,12,07,7.20
2013,11,26,12,08,7.20
2013,11,26,12,09,7.10
2013,11,26,12,10,7.10
2013,11,26,12,11,7.10
2013,11,26,12,12,7.10
2013,11,26,12,13,7.10
2013,11,26,12,14,7.00
2013,11,26,12,15,7.00
2013,11,26,12,16,6.90
2013,11,26,12,17,6.90
2013,11,26,12,18,6.90
2013,11,26,12,19,6.90
2013,11,26,12,20,6.90
2013,11,26,12,21,6.90
2013,11,26,12,22,6.90
2013,11,26,12,23,6.90
2013,11,26,12,24,6.90
2013,11,26,12,25,6.90
2013,11,26,12,26,7.00
2013,11,26,12,27,7.00
2013,11,26,12,28,7.00
2013,11,26,12,29,7.00
2013,11,26,12,30,7.00
2013,11,26,12,31,7.00
2013,11,26,12,32,7.00
2013,11,26,12,33,7.00
2013,11,26,12,34,7.00
2013,11,26,12,35,7.00
2013,11,26,12,36,7.00
2013,11,26,12,37,7.00
2013,11,26,12,38,7.00
2013,11,26,12,39,7.00
2013,11,26,12,40,7.00
2013,11,26,12,41,7.00
2013,11,26,12,42,7.00
2013,11,26,12,43,7.00
2013,11,26,12,44,7.00
2013,11,26,12,45,7.00
2013,11,26,12,46,7.00
2013,11,26,12,47,7.00
2013,11,26,12,48,7.10
2013,11,26,12,49,7.10
2013,11,26,12,50,7.10
2013,11,26,12,51,7.10
2013,11,26,12,52,7.10
2013,11,26,12,53,7.10
2013,11,26,12,54,7.10
2013,11,26,12,55,7.10
2013,11,26,12,56,7.10
2013,11,26,12,57,7.10
2013,11,26,12,58,7.10
2013,11,26,12,59,7.10
2013,11,26,13,00,7.10
2013,11,26,13,01,7.10
2013,11,26,13,02,7.10
2013,11,26,13,03,7.10
2013,11,26,13,04,7.10
2013,11,26,13,05,7.10
2013,11,26,13,06,7.10
2013,11,26,13,07,7.10
2013,11,26,13,08,7.10
2013,11,26,13,09,7.10
2013,11,26,13,10,7.00
2013,11,26,13,11,7.00
2013,11,26,13,12,7.00
2013,11,26,13,13,7.00
2013,11,26,13,14,7.00
2013,11,26,13,15,7.00
2013,11,26,13,16,7.00
2013,11,26,13,17,7.00
2013,11,26,13,18,7.00
2013,11,26,13,19,7.00
2013,11,26,13,20,7.00
2013,11,26,13,21,7.00
2013,11,26,13,22,6.90
2013,11,26,13,23,6.90
2013,11,26,13,24,6.90
2013,11,26,13,25,6.90
2013,11,26,13,26,6.90
2013,11,26,13,27,6.90
2013,11,26,13,28,6.90
2013,11,26,13,29,6.90
2013,11,26,13,30,6.90
2013,11,26,13,31,6.80
2013,11,26,13,32,6.80
2013,11,26,13,33,6.80
2013,11,26,13,34,6.80
2013,11,26,13,35,6.80
2013,11,26,13,36,6.80
2013,11,26,13,37,6.80
2013,11,26,13,38,6.80
2013,11,26,13,39,6.80
2013,11,26,13,40,6.80
2013,11,26,13,41,6.80
2013,11,26,13,42,6.80
2013,11,26,13,43,6.80
2013,11,26,13,44,6.80
2013,11,26,13,45,6.80
2013,11,26,13,46,6.80
2013,11,26,13,47,6.80
2013,11,26,13,48,6.80
2013,11,26,13,49,6.80
2013,11,26,13,50,6.80
2013,11,26,13,51,6.80
2013,11,26,13,52,6.80
2013,11,26,13,53,6.80
2013,11,26,13,54,6.80
2013,11,26,13,55,6.70
2013,11,26,13,56,6.70
2013,11,26,13,57,6.70
2013,11,26,13,58,6.70
2013,11,26,13,59,6.70
2013,11,26,14,00,6.70
2013,11,26,14,01,6.70
2013,11,26,14,02,6.70
2013,11,26,14,03,6.60
2013,11,26,14,04,6.60
2013,11,26,14,05,6.60
2013,11,26,14,06,6.60
2013,11,26,14,07,6.60
2013,11,26,14,08,6.60
2013,11,26,14,09,6.60
2013,11,26,14,10,6.60
2013,11,26,14,11,6.60
2013,11,26,14,12,6.60
2013,11,26,14,13,6.60
2013,11,26,14,14,6.60
2013,11,26,14,15,6.60
2013,11,26,14,16,6.60
2013,11,26,14,17,6.60
2013,11,26,14,18,6.60
2013,11,26,14,19,6.60
2013,11,26,14,20,6.60
2013,11,26,14,21,6.60
2013,11,26,14,22,6.60
2013,11,26,14,23,6.60
2013,11,26,14,24,6.60
2013,11,26,14,25,6.70
2013,11,26,14,26,6.70
2013,11,26,14,27,6.70
2013,11,26,14,28,6.70
2013,11,26,14,29,6.70
2013,11,26,14,30,6.70
2013,11,26,14,31,6.70
2013,11,26,14,32,6.70
2013,11,26,14,33,6.70
2013,11,26,14,34,6.70
2013,11,26,14,35,6.60
2013,11,26,14,36,6.60
2013,11,26,14,37,6.60
2013,11,26,14,38,6.60
2013,11,26,14,39,6.60
2013,11,26,14,40,6.50
2013,11,26,14,41,6.50
2013,11,26,14,42,6.50
2013,11,26,14,43,6.50
2013,11,26,14,44,6.50
2013,11,26,14,45,6.50
2013,11,26,14,46,6.50
2013,11,26,14,47,6.50
2013,11,26,14,48,6.50
2013,11,26,14,49,6.50
2013,11,26,14,50,6.50
2013,11,26,14,51,6.50
2013,11,26,14,52,6.50
2013,11,26,14,53,6.50
2013,11,26,14,54,6.50
2013,11,26,14,55,6.50
2013,11,26,14,56,6.50
2013,11,26,14,57,6.50
2013,11,26,14,58,6.50
2013,11,26,14,59,6.50
2013,11,26,15,00,6.50
2013,11,26,15,01,6.50
2013,11,26,15,02,6.50
2013,11,26,15,03,6.50
2013,11,26,15,04,6.50
2013,11,26,15,05,6.40
2013,11,26,15,06,6.40
2013,11,26,15,07,6.40
2013,11,26,15,08,6.40
2013,11,26,15,09,6.40
2013,11,26,15,10,6.40
2013,11,26,15,11,6.40
2013,11,26,15,12,6.40
2013,11,26,15,13,6.40
2013,11,26,15,14,6.40
2013,11,26,15,15,6.40
2013,11,26,15,16,6.40
2013,11,26,15,17,6.40
2013,11,26,15,18,6.40
2013,11,26,15,19,6.40
2013,11,26,15,20,6.40
2013,11,26,15,21,6.40
2013,11,26,15,22,6.40
2013,11,26,15,23,6.40
2013,11,26,15,24,6.40
2013,11,26,15,25,6.40
2013,11,26,15,26,6.40
2013,11,26,15,27,6.40
2013,11,26,15,28,6.40
2013,11,26,15,29,6.40
2013,11,26,15,30,6.40
2013,11,26,15,31,6.40
2013,11,26,15,32,6.30
2013,11,26,15,33,6.30
2013,11,26,15,34,6.30
2013,11,26,15,35,6.30
2013,11,26,15,36,6.30
2013,11,26,15,37,6.30
2013,11,26,15,38,6.30
2013,11,26,15,39,6.30
2013,11,26,15,40,6.30
2013,11,26,15,41,6.30
2013,11,26,15,42,6.30
2013,11,26,15,43,6.30
2013,11,26,15,44,6.30
2013,11,26,15,45,6.30
2013,11,26,15,46,6.30
2013,11,26,15,47,6.30
2013,11,26,15,48,6.30
2013,11,26,15,49,6.30
2013,11,26,15,50,6.30
2013,11,26,15,51,6.30
2013,11,26,15,52,6.30
2013,11,26,15,53,6.30
2013,11,26,15,54,6.20
2013,11,26,15,55,6.20
2013,11,26,15,56,6.20
2013,11,26,15,57,6.20
2013,11,26,15,58,6.20
2013,11,26,15,59,6.20
2013,11,26,16,00,6.10
2013,11,26,16,01,6.10
2013,11,26,16,02,6.10
2013,11,26,16,03,6.10
2013,11,26,16,04,6.10
2013,11,26,16,05,6.10
2013,11,26,16,06,6.10
2013,11,26,16,07,6.10
2013,11,26,16,08,6.10
2013,11,26,16,09,6.00
2013,11,26,16,10,6.00
2013,11,26,16,11,6.00
2013,11,26,16,12,6.00
2013,11,26,16,13,6.00
2013,11,26,16,14,6.00
2013,11,26,16,15,6.00
2013,11,26,16,16,6.00
2013,11,26,16,17,6.00
2013,11,26,16,18,6.00
2013,11,26,16,19,6.00
2013,11,26,16,20,6.00
2013,11,26,16,21,6.00
2013,11,26,16,22,6.00
2013,11,26,16,23,6.00
2013,11,26,16,24,5.90
2013,11,26,16,25,5.90
2013,11,26,16,26,5.90
2013,11,26,16,27,5.90
2013,11,26,16,28,5.90
2013,11,26,16,29,5.90
2013,11,26,16,30,5.90
2013,11,26,16,31,5.80
2013,11,26,16,32,5.80
2013,11,26,16,33,5.80
2013,11,26,16,34,5.80
2013,11,26,16,35,5.80
2013,11,26,16,36,5.70
2013,11,26,16,37,5.70
2013,11,26,16,38,5.70
2013,11,26,16,39,5.70
2013,11,26,16,40,5.70
2013,11,26,16,41,5.70
2013,11,26,16,42,5.70
2013,11,26,16,43,5.70
2013,11,26,16,44,5.60
2013,11,26,16,45,5.60
2013,11,26,16,46,5.60
2013,11,26,16,47,5.60
2013,11,26,16,48,5.60
2013,11,26,16,49,5.60
2013,11,26,16,50,5.60
2013,11,26,16,51,5.60
2013,11,26,16,52,5.60
2013,11,26,16,53,5.60
2013,11,26,16,54,5.50
2013,11,26,16,55,5.50
2013,11,26,16,56,5.50
2013,11,26,16,57,5.50
2013,11,26,16,58,5.50
2013,11,26,16,59,5.40
2013,11,26,17,00,5.40
2013,11,26,17,01,5.40
2013,11,26,17,02,5.40
2013,11,26,17,03,5.40
2013,11,26,17,04,5.40
2013,11,26,17,05,5.40
2013,11,26,17,06,5.40
2013,11,26,17,07,5.40
2013,11,26,17,08,5.40
2013,11,26,17,09,5.30
2013,11,26,17,10,5.30
2013,11,26,17,11,5.30
2013,11,26,17,12,5.30
2013,11,26,17,13,5.30
2013,11,26,17,14,5.30
2013,11,26,17,15,5.30
2013,11,26,17,16,5.30
2013,11,26,17,17,5.30
2013,11,26,17,18,5.30
2013,11,26,17,19,5.30
2013,11,26,17,20,5.20
2013,11,26,17,21,5.20
2013,11,26,17,22,5.20
2013,11,26,17,23,5.20
2013,11,26,17,24,5.20
2013,11,26,17,25,5.20
2013,11,26,17,26,5.20
2013,11,26,17,27,5.10
2013,11,26,17,28,5.10
2013,11,26,17,29,5.10
2013,11,26,17,30,5.10
2013,11,26,17,31,5.00
2013,11,26,17,32,5.00
2013,11,26,17,33,5.00
2013,11,26,17,34,4.90
2013,11,26,17,35,4.90
2013,11,26,17,36,4.80
2013,11,26,17,37,4.80
2013,11,26,17,38,4.80
2013,11,26,17,39,4.70
2013,11,26,17,40,4.70
2013,11,26,17,41,4.70
2013,11,26,17,42,4.70
2013,11,26,17,43,4.70
2013,11,26,17,44,4.70
2013,11,26,17,45,4.60
2013,11,26,17,46,4.60
2013,11,26,17,47,4.60
2013,11,26,17,48,4.60
2013,11,26,17,49,4.60
2013,11,26,17,50,4.60
2013,11,26,17,51,4.60
2013,11,26,17,52,4.60
2013,11,26,17,53,4.60
2013,11,26,17,54,4.60
2013,11,26,17,55,4.60
2013,11,26,17,56,4.60
2013,11,26,17,57,4.60